When you browse on this site, cookies collect data to enhance your experience and personalize the content and advertising you see.
Visit our Privacy Policy to learn more. By continuing to use the site, you agree to this use of cookies and data.

Hourly Weather Suarez

Today, 7 August, Friday

Time Temperature Precipitation Wind Pressure Humidity
00:00 +21°C° 0.1 mm 1 mps 666 mmHg 93%
01:00 +21°C° 0.1 mm 1 mps 665 mmHg 93%
02:00 +18°C° 0 mm 0 mps 665 mmHg 92%
03:00 +18°C° 0 mm 0 mps 665 mmHg 92%
04:00 +18°C° 0 mm 0 mps 664 mmHg 91%
05:00 +18°C° 0 mm 0 mps 665 mmHg 89%
06:00 +18°C° 0 mm 0 mps 665 mmHg 88%
07:00 +19°C° 0 mm 0 mps 665 mmHg 86%
08:00 +22°C° 0 mm 0 mps 666 mmHg 76%
09:00 +24°C° 0 mm 0 mps 667 mmHg 65%
10:00 +29°C° 0 mm 1 mps 668 mmHg 54%
11:00 +29°C° 0.2 mm 1 mps 668 mmHg 53%
12:00 +30°C° 0.2 mm 1 mps 668 mmHg 52%
13:00 +30°C° 0.2 mm 1 mps 667 mmHg 51%
14:00 +30°C° 0.3 mm 1 mps 667 mmHg 54%
15:00 +29°C° 0.3 mm 1 mps 666 mmHg 56%
16:00 +29°C° 0.3 mm 1 mps 666 mmHg 58%
17:00 +27°C° 0.1 mm 1 mps 666 mmHg 67%
18:00 +25°C° 0.1 mm 1 mps 665 mmHg 76%
19:00 +23°C° 0.1 mm 1 mps 665 mmHg 85%
20:00 +23°C° 0.1 mm 1 mps 666 mmHg 86%
21:00 +22°C° 0.1 mm 1 mps 666 mmHg 87%
22:00 +22°C° 0.1 mm 1 mps 667 mmHg 88%
23:00 +22°C° 0 mm 1 mps 666 mmHg 89%

Tomorrow, 8 August, Saturday

Time Temperature Precipitation Wind Pressure Humidity
00:00 +21°C° 0 mm 1 mps 666 mmHg 89%
01:00 +21°C° 0 mm 1 mps 666 mmHg 90%
02:00 +21°C° 0 mm 1 mps 666 mmHg 90%
03:00 +18°C° 0 mm 0 mps 665 mmHg 90%
04:00 +18°C° 0 mm 0 mps 665 mmHg 90%
05:00 +19°C° 0 mm 0 mps 666 mmHg 88%
06:00 +19°C° 0 mm 0 mps 666 mmHg 87%
07:00 +19°C° 0 mm 0 mps 666 mmHg 85%
08:00 +22°C° 0 mm 0 mps 667 mmHg 75%
09:00 +25°C° 0 mm 0 mps 668 mmHg 66%
10:00 +29°C° 0 mm 1 mps 669 mmHg 56%
11:00 +30°C° 0.2 mm 1 mps 669 mmHg 55%
12:00 +30°C° 0.2 mm 1 mps 668 mmHg 53%
13:00 +31°C° 0.2 mm 1 mps 668 mmHg 52%
14:00 +30°C° 0.3 mm 1 mps 667 mmHg 56%
15:00 +29°C° 0.3 mm 1 mps 667 mmHg 61%
16:00 +28°C° 0.3 mm 1 mps 666 mmHg 66%
17:00 +27°C° 0.2 mm 1 mps 666 mmHg 73%
18:00 +25°C° 0.2 mm 1 mps 666 mmHg 79%
19:00 +23°C° 0.2 mm 1 mps 665 mmHg 86%
20:00 +23°C° 0.1 mm 1 mps 666 mmHg 87%
21:00 +22°C° 0.1 mm 1 mps 666 mmHg 87%
22:00 +22°C° 0.1 mm 1 mps 667 mmHg 88%
23:00 +21°C° 0 mm 1 mps 667 mmHg 88%

Day after tomorrow, 9 August, Sunday

Time Temperature Precipitation Wind Pressure Humidity
00:00 +21°C° 0 mm 1 mps 666 mmHg 88%
01:00 +21°C° 0 mm 1 mps 666 mmHg 88%
02:00 +20°C° 0 mm 1 mps 666 mmHg 88%
03:00 +20°C° 0 mm 1 mps 665 mmHg 87%
04:00 +18°C° 0 mm 0 mps 665 mmHg 86%
05:00 +18°C° 0 mm 0 mps 665 mmHg 85%
06:00 +19°C° 0 mm 0 mps 666 mmHg 83%
07:00 +19°C° 0 mm 0 mps 666 mmHg 81%
08:00 +22°C° 0 mm 0 mps 667 mmHg 71%
09:00 +25°C° 0 mm 0 mps 668 mmHg 61%
10:00 +30°C° 0 mm 1 mps 669 mmHg 51%
11:00 +30°C° 0.1 mm 1 mps 668 mmHg 52%
12:00 +30°C° 0.1 mm 1 mps 668 mmHg 54%
13:00 +30°C° 0.1 mm 1 mps 667 mmHg 55%
14:00 +29°C° 0.4 mm 1 mps 666 mmHg 61%
15:00 +28°C° 0.4 mm 1 mps 666 mmHg 67%
16:00 +27°C° 0.4 mm 1 mps 665 mmHg 73%
17:00 +26°C° 0.3 mm 1 mps 665 mmHg 79%
18:00 +24°C° 0.3 mm 1 mps 665 mmHg 85%
19:00 +23°C° 0.3 mm 1 mps 665 mmHg 92%
20:00 +23°C° 0.2 mm 1 mps 665 mmHg 91%
21:00 +22°C° 0.2 mm 1 mps 666 mmHg 91%
22:00 +22°C° 0.2 mm 1 mps 666 mmHg 90%
23:00 +21°C° 0.1 mm 1 mps 666 mmHg 90%

10 August, Monday

Time Temperature Precipitation Wind Pressure Humidity
00:00 +21°C° 0.1 mm 1 mps 666 mmHg 91%
01:00 +21°C° 0.1 mm 1 mps 665 mmHg 91%
02:00 +20°C° 0 mm 1 mps 665 mmHg 91%
03:00 +20°C° 0 mm 1 mps 665 mmHg 91%
04:00 +18°C° 0 mm 0 mps 664 mmHg 91%
05:00 +18°C° 0 mm 0 mps 665 mmHg 89%
06:00 +19°C° 0 mm 0 mps 665 mmHg 88%
07:00 +19°C° 0 mm 0 mps 665 mmHg 87%
08:00 +22°C° 0 mm 0 mps 666 mmHg 76%
09:00 +25°C° 0 mm 0 mps 667 mmHg 65%
10:00 +29°C° 0 mm 1 mps 668 mmHg 55%
11:00 +30°C° 0 mm 1 mps 667 mmHg 52%
12:00 +31°C° 0 mm 1 mps 667 mmHg 50%
13:00 +32°C° 0 mm 1 mps 666 mmHg 47%
14:00 +30°C° 0.1 mm 1 mps 665 mmHg 55%
15:00 +29°C° 0.1 mm 2 mps 664 mmHg 63%
16:00 +28°C° 0.1 mm 2 mps 663 mmHg 70%
17:00 +26°C° 0.4 mm 2 mps 664 mmHg 78%
18:00 +24°C° 0.4 mm 1 mps 664 mmHg 86%
19:00 +23°C° 0.4 mm 1 mps 664 mmHg 94%
20:00 +22°C° 0.2 mm 1 mps 664 mmHg 94%
21:00 +22°C° 0.2 mm 1 mps 665 mmHg 94%
22:00 +22°C° 0.2 mm 1 mps 665 mmHg 95%
23:00 +22°C° 0.1 mm 1 mps 665 mmHg 94%

11 August, Tuesday

Time Temperature Precipitation Wind Pressure Humidity
00:00 +21°C° 0.1 mm 1 mps 665 mmHg 94%
01:00 +21°C° 0.1 mm 1 mps 664 mmHg 94%
02:00 +21°C° 0.1 mm 1 mps 664 mmHg 94%
03:00 +19°C° 0.1 mm 0 mps 664 mmHg 94%
04:00 +19°C° 0.1 mm 0 mps 664 mmHg 93%
05:00 +19°C° 0 mm 0 mps 664 mmHg 92%
06:00 +19°C° 0 mm 0 mps 664 mmHg 91%
07:00 +19°C° 0 mm 0 mps 664 mmHg 90%
08:00 +22°C° 0 mm 0 mps 665 mmHg 80%
09:00 +24°C° 0 mm 0 mps 666 mmHg 70%
10:00 +29°C° 0 mm 1 mps 667 mmHg 60%
11:00 +29°C° 0.1 mm 1 mps 666 mmHg 58%
12:00 +30°C° 0.1 mm 1 mps 665 mmHg 56%
13:00 +31°C° 0.1 mm 1 mps 665 mmHg 54%
14:00 +30°C° 0.3 mm 1 mps 664 mmHg 60%
15:00 +29°C° 0.3 mm 2 mps 663 mmHg 67%
16:00 +27°C° 0.3 mm 2 mps 663 mmHg 74%
17:00 +26°C° 0.7 mm 2 mps 663 mmHg 80%
18:00 +24°C° 0.7 mm 1 mps 663 mmHg 87%
19:00 +23°C° 0.7 mm 1 mps 664 mmHg 94%
20:00 +22°C° 0.6 mm 1 mps 664 mmHg 94%
21:00 +22°C° 0.6 mm 1 mps 664 mmHg 95%
22:00 +22°C° 0.6 mm 1 mps 665 mmHg 95%
23:00 +22°C° 0.2 mm 1 mps 665 mmHg 95%

12 August, Wednesday

Time Temperature Precipitation Wind Pressure Humidity
00:00 +22°C° 0.2 mm 1 mps 664 mmHg 95%
01:00 +19°C° 0.2 mm 0 mps 664 mmHg 95%
02:00 +19°C° 0.2 mm 0 mps 664 mmHg 95%
03:00 +19°C° 0.2 mm 0 mps 663 mmHg 95%
04:00 +19°C° 0.2 mm 0 mps 663 mmHg 95%
05:00 +19°C° 0 mm 0 mps 664 mmHg 94%
06:00 +19°C° 0 mm 0 mps 664 mmHg 93%
07:00 +19°C° 0 mm 0 mps 664 mmHg 92%
08:00 +22°C° 0 mm 0 mps 665 mmHg 83%
09:00 +24°C° 0 mm 0 mps 666 mmHg 75%
10:00 +28°C° 0 mm 1 mps 667 mmHg 66%
11:00 +29°C° 0.2 mm 1 mps 666 mmHg 65%
12:00 +29°C° 0.2 mm 1 mps 665 mmHg 64%
13:00 +30°C° 0.2 mm 1 mps 665 mmHg 62%
14:00 +29°C° 0.9 mm 1 mps 664 mmHg 68%
15:00 +27°C° 0.9 mm 1 mps 663 mmHg 75%
16:00 +26°C° 0.9 mm 2 mps 663 mmHg 81%
17:00 +25°C° 1.3 mm 1 mps 663 mmHg 85%
18:00 +24°C° 1.3 mm 1 mps 663 mmHg 90%
19:00 +23°C° 1.3 mm 1 mps 663 mmHg 94%
20:00 +22°C° 1.4 mm 1 mps 664 mmHg 95%
21:00 +22°C° 1.4 mm 1 mps 664 mmHg 95%
22:00 +22°C° 1.4 mm 1 mps 665 mmHg 96%
23:00 +22°C° 0.6 mm 1 mps 664 mmHg 96%
Show more